Location: Vancouver
(49.2500°N, 123.1330°W)
Time: 17:15:15
(UTC-07:00)

ISS - All Passes

Search period start: 01 August 2015 00:00
Search period end: 11 August 2015 00:00
Orbit: 401 x 403 km, 51.6° (Epoch: 01 August)

Date Brightness Start Highest point End Pass type
(mag) Time Alt. Az. Time Alt. Az. Time Alt. Az.
01 Aug - 00:45:13 10° W 00:48:26 54° N 00:51:39 10° ENE visible
01 Aug - 02:21:48 10° WNW 02:25:05 76° NNE 02:28:21 10° ESE visible
01 Aug - 03:58:26 10° W 04:01:20 29° SW 04:04:12 10° SSE visible
01 Aug - 22:15:50 10° SW 22:18:57 44° SSE 22:22:06 10° ENE visible
01 Aug - 23:52:07 10° W 23:55:21 62° N 23:58:37 10° ENE visible
02 Aug - 01:28:47 10° WNW 01:32:01 61° N 01:35:16 10° E visible
02 Aug - 03:05:17 10° WNW 03:08:26 46° SSW 03:11:35 10° SE night (unlit)
02 Aug - 21:23:14 10° SSW 21:26:04 28° SE 21:28:56 10° E visible
02 Aug - 22:59:02 10° WSW 23:02:18 77° NNW 23:05:35 10° ENE visible
03 Aug - 00:35:43 10° WNW 00:38:56 54° N 00:42:10 10° E visible
03 Aug - 02:12:13 10° WNW 02:15:29 72° SSW 02:18:44 10° ESE visible
03 Aug - 03:49:23 10° W 03:51:30 16° SW 03:53:33 10° S night (unlit)
03 Aug - 20:31:00 10° S 20:33:14 17° SE 20:35:31 10° E daylight
03 Aug - 22:06:02 10° WSW 22:09:17 77° SSE 22:12:33 10° ENE visible
03 Aug - 23:42:38 10° W 23:45:50 54° N 23:49:04 10° ENE visible
04 Aug - 01:19:11 10° WNW 01:22:28 82° NNE 01:25:44 10° ESE visible
04 Aug - 02:55:53 10° W 02:58:40 26° SW 03:01:25 10° SSE night (unlit)
04 Aug - 19:39:54 10° SE 19:40:26 10° SE 19:41:05 10° SE daylight
04 Aug - 21:13:08 10° SW 21:16:18 50° SSE 21:19:29 10° ENE daylight
04 Aug - 22:49:30 10° W 22:52:44 59° N 22:55:59 10° ENE visible
05 Aug - 00:26:08 10° WNW 00:29:24 64° N 00:32:39 10° E visible
05 Aug - 02:02:39 10° WNW 02:05:46 41° SSW 02:08:51 10° SE visible
05 Aug - 20:20:26 10° SSW 20:23:22 32° SSE 20:26:20 10° E daylight
05 Aug - 21:56:23 10° W 21:59:38 72° NNW 22:02:55 10° ENE visible
05 Aug - 23:33:04 10° WNW 23:36:18 55° N 23:39:31 10° E visible
06 Aug - 01:09:34 10° WNW 01:12:48 64° SSW 01:16:02 10° ESE visible
06 Aug - 02:46:57 10° WSW 02:48:46 14° SW 02:50:30 10° S night (unlit)
06 Aug - 19:28:03 10° S 19:30:29 20° SE 19:32:58 10° E daylight
06 Aug - 21:03:19 10° WSW 21:06:35 84° SSE 21:09:51 10° ENE daylight
06 Aug - 22:39:57 10° W 22:43:10 53° N 22:46:23 10° ENE visible
07 Aug - 00:16:29 10° WNW 00:19:47 88° NE 00:23:02 10° ESE visible
07 Aug - 01:53:16 10° W 01:55:55 23° SW 01:58:32 10° SSE night (unlit)
07 Aug - 18:36:21 10° SSE 18:37:38 12° SE 18:39:02 10° ESE daylight
07 Aug - 20:10:21 10° SW 20:13:33 57° SSE 20:16:46 10° ENE daylight
07 Aug - 21:46:48 10° W 21:50:02 57° N 21:53:16 10° ENE visible
07 Aug - 23:23:25 10° WNW 23:26:41 68° NNE 23:29:56 10° E visible
08 Aug - 00:59:57 10° W 01:03:00 36° SSW 01:06:02 10° SE visible
08 Aug - 19:17:33 10° SW 19:20:35 36° SSE 19:23:37 10° E daylight
08 Aug - 20:53:39 10° W 20:56:54 68° NNW 21:00:10 10° ENE daylight
08 Aug - 22:30:19 10° WNW 22:33:33 57° N 22:36:47 10° E visible
09 Aug - 00:06:48 10° WNW 00:10:02 57° SSW 00:13:14 10° SE visible
09 Aug - 01:44:32 10° WSW 01:45:56 12° SW 01:47:15 10° SSW night (unlit)
09 Aug - 18:25:02 10° SSW 18:27:39 22° SE 18:30:18 10° E daylight
09 Aug - 20:00:31 10° WSW 20:03:47 88° NNW 20:07:04 10° ENE daylight
09 Aug - 21:37:11 10° WNW 21:40:24 53° N 21:43:37 10° E visible
09 Aug - 23:13:42 10° WNW 23:16:59 85° SSW 23:20:15 10° ESE visible
10 Aug - 00:50:35 10° W 00:53:05 20° SW 00:55:31 10° S visible
10 Aug - 17:33:03 10° S 17:34:46 14° SE 17:36:34 10° ESE daylight
10 Aug - 19:07:30 10° WSW 19:10:44 64° SSE 19:13:58 10° ENE daylight
10 Aug - 20:44:01 10° W 20:47:13 55° N 20:50:27 10° ENE daylight
10 Aug - 22:20:36 10° WNW 22:23:52 72° NNE 22:27:08 10° E visible
